Find Starlink 32873

NORAD ID: 62857 Int'l Des: 2025-022 Owner: SPXS Country: US Constellation: starlink operational
LEOCIRCULAR

实时位置

正在加载3D地球...

关于 Starlink 32873

正在加载描述...

即将过境

Passes for default location (London). Set your location on the main map for personalized predictions.

高度历史

Loading altitude history...

两行轨道根数

1 62857U 25022D 26124.64625294 .00016614 00000-0 57191-3 0 9996
2 62857 53.1570 229.9664 0001052 68.7547 291.3566 15.30193871 70461
Epoch: May 4, 2026 • Age: 16 hours

当前状态

高度 474.9 km
速度 7.63 km/s
星下点 11.24°N, 96.44°W
发射日期 Feb 2, 2025
运行时间 1.2 years
类型 internet

技术详情

分类 Payload
质量 730.00 kg
干质量 700.00 kg
总质量 730.00 kg
长度 0.30 m
直径 4.10 m
跨度 29.00 m
形状 Box + pan
制造商 SPXS
平台类型 Starlink V2M
阶段状态 In Orbit
所有者/国家 SPXS/US

Most Searched